Location: Madden
(51.3728°N, 114.3297°W)
Time: 18:04:59
(UTC+00:00)

CUTE-I - Pass Details

Date: 11 December 2023
Orbit: 807 x 823 km, 98.7° (Epoch: 03 March)

Event Time Altitude Azimuth Distance (km) Brightness Sun altitude
Rises 00:53:12 0° 165° (SSE) 3,318 ? -12.3°
Reaches altitude 10° 00:55:31 10° 167° (SSE) 2,393 ? -12.6°
Maximum altitude 01:00:50 82° 255° (WSW) 830 ? -13.4°
Drops below altitude 10° 01:06:13 10° 343° (NNW) 2,422 ? -14.2°
Sets 01:08:35 0° 345° (NNW) 3,361 ? -14.5°
